Location: Melara
(45.0500°N, 11.1833°E)
Time: 16:42:53
(UTC+00:00)

SEEDS - Visible Passes

Search period start: 28 May 2024 00:00
Search period end: 07 June 2024 00:00
Orbit: 551 x 560 km, 97.7° (Epoch: 28 May)

Date Brightness Start Highest point End Pass type
(mag) Time Alt. Az. Time Alt. Az. Time Alt. Az.
30 May ? 02:57:06 10° NNE 03:01:01 49° E 03:04:53 10° S visible
31 May ? 02:54:40 10° NNE 02:58:33 46° E 03:02:23 10° S visible
01 Jun ? 02:52:13 10° NNE 02:56:04 43° E 02:59:52 10° S visible
02 Jun ? 02:49:46 10° NNE 02:53:34 40° E 02:57:20 10° S visible
03 Jun ? 02:47:17 10° NNE 02:51:02 38° E 02:54:47 10° SSE visible
04 Jun ? 02:44:48 10° NNE 02:48:31 35° E 02:52:12 10° SSE visible
05 Jun ? 02:42:18 10° NNE 02:45:58 33° E 02:49:35 10° SSE visible
06 Jun ? 02:39:48 10° NNE 02:43:24 31° E 02:46:58 10° SSE visible
